Defiance, OH

6:46 AM EST on November 13, 2019 (GMT -0500)
Defiance Memorial

Weather History for KDFI - September, 2019

Change the Weather History Date:

Monday, September 23, 2019

  Actual Average Record
Temperature  
Mean Temperature 67 °F -  
Max Temperature 77 °F 71 °F 93 °F (2010)
Min Temperature 57 °F 46 °F 1 °F (2014)
Cooling Degree Days 2    
Growing Degree Days 17 (Base 50)    
Moisture  
Dew Point 62 °F    
Average Humidity 75    
Maximum Humidity 93    
Minimum Humidity 45    
Precipitation  
Precipitation 0.39 in - - ()
Sea Level Pressure  
Sea Level Pressure 29.90 in    
Wind  
Wind Speed 9 mph (West)    
Max Wind Speed 20 mph    
Max Gust Speed 29 mph    
Visibility 9 miles    
Events Rain    
Averages and records for this station are not official NWS values.
T = Trace of Precipitation, MM = Missing Value Source: NWS Daily Summary

Daily Weather History Graph

Daily Weather History Graph

Search for Another Location

Airport or City:

Astronomy

Sep. 23, 2019 Rise Set
Actual Time 7:25 AM EDT 7:33 PM EDT
Civil Twilight 6:58 AM EDT 8:01 PM EDT
Nautical Twilight 6:26 AM EDT 8:33 PM EDT
Astronomical Twilight 5:53 AM EDT 9:06 PM EDT
Moon 1:04 AM EDT (9/23) 4:30 PM EDT (9/23)
Length of Visible Light 13h 02m
Length of Day
12h 07m
Waning Crescent, 33% of the Moon is Illuminated
Sep 23
Waning Crescent
Sep 28
New
Oct 5
First Quarter
Oct 13
Full
Oct 21
Last Quarter

Hourly Weather History & Observations

Time (EDT) Temp. Dew Point Humidity Pressure Visibility Wind Dir Wind Speed Gust Speed Precip Events Conditions
12:53 AM 77.0 °F 61.0 °F 58% 29.85 in 10.0 mi SW 11.5 mph 25.3 mph 0.00 in   Overcast
1:53 AM 73.0 °F 64.9 °F 76% 29.86 in 9.0 mi SW 9.2 mph - 0.01 in Rain Light Rain
2:38 AM 73.0 °F 64.9 °F 76% 29.86 in 10.0 mi SW 10.4 mph 23.0 mph 0.00 in   Mostly Cloudy
2:53 AM 73.0 °F 64.9 °F 76% 29.85 in 10.0 mi SW 11.5 mph - 0.00 in   Overcast
3:42 AM 72.0 °F 66.0 °F 81% 29.85 in 10.0 mi SSW 11.5 mph - N/A   Overcast
3:53 AM 73.0 °F 66.9 °F 81% 29.83 in 10.0 mi SW 10.4 mph - N/A   Overcast
4:07 AM 73.0 °F 66.9 °F 81% 29.85 in 10.0 mi SSW 8.1 mph - 0.00 in Rain Light Rain
4:24 AM 72.0 °F 66.9 °F 84% 29.84 in 5.0 mi SSW 9.2 mph - 0.03 in Rain Rain
4:41 AM 71.1 °F 66.9 °F 87% 29.84 in 2.5 mi SW 6.9 mph - 0.12 in Rain Heavy Rain
4:49 AM 71.6 °F 66.2 °F 83% 29.85 in 2.0 mi WNW 6.9 mph - 0.17 in Rain Heavy Rain
4:53 AM 70.0 °F 68.0 °F 93% 29.83 in 2.0 mi NW 8.1 mph - 0.21 in Rain Heavy Rain
5:01 AM 70.0 °F 68.0 °F 93% 29.85 in 2.0 mi NW 9.2 mph - 0.07 in Rain Heavy Rain
5:05 AM 70.0 °F 68.0 °F 93% 29.85 in 1.8 mi WNW 6.9 mph - 0.12 in Rain Heavy Rain
5:15 AM 70.0 °F 68.0 °F 93% 29.85 in 2.5 mi West 4.6 mph - 0.15 in Rain Rain
5:22 AM 71.1 °F 68.0 °F 90% 29.85 in 6.0 mi SW 3.5 mph - 0.16 in Rain Light Rain
5:29 AM 71.1 °F 68.0 °F 90% 29.85 in 8.0 mi Variable 4.6 mph - 0.16 in Rain Light Rain
5:53 AM 71.1 °F 68.0 °F 90% 29.84 in 10.0 mi WSW 3.5 mph - 0.16 in Rain Light Rain
6:09 AM 71.1 °F 68.0 °F 90% 29.85 in 10.0 mi Variable 4.6 mph - 0.01 in Rain Light Rain
6:53 AM 71.1 °F 66.9 °F 87% 29.86 in 10.0 mi Variable 5.8 mph - 0.01 in   Overcast
7:50 AM 69.8 °F 66.2 °F 88% 29.89 in 10.0 mi West 4.6 mph - N/A   Mostly Cloudy
7:53 AM 69.1 °F 66.0 °F 90% 29.88 in 10.0 mi West 8.1 mph - N/A   Mostly Cloudy
8:53 AM 69.1 °F 64.9 °F 87% 29.89 in 10.0 mi Variable 5.8 mph - N/A   Scattered Clouds
9:53 AM 71.1 °F 64.9 °F 81% 29.92 in 10.0 mi WNW 8.1 mph - N/A   Mostly Cloudy
9:55 AM 71.1 °F 64.9 °F 81% 29.93 in 10.0 mi West 5.8 mph - N/A   Mostly Cloudy
10:13 AM 70.0 °F 63.0 °F 78% 29.94 in 10.0 mi WNW 8.1 mph - N/A   Mostly Cloudy
10:53 AM 72.0 °F 63.0 °F 73% 29.93 in 10.0 mi Variable 6.9 mph - N/A   Scattered Clouds
11:10 AM 73.0 °F 63.0 °F 71% 29.94 in 10.0 mi West 10.4 mph 19.6 mph N/A   Mostly Cloudy
11:30 AM 73.0 °F 61.0 °F 66% 29.94 in 10.0 mi West 8.1 mph 18.4 mph N/A   Partly Cloudy
11:53 AM 72.0 °F 60.1 °F 66% 29.92 in 10.0 mi WNW 9.2 mph 19.6 mph N/A   Mostly Cloudy
12:53 PM 73.9 °F 59.0 °F 59% 29.93 in 10.0 mi WNW 19.6 mph 27.6 mph N/A   Clear
1:53 PM 75.0 °F 57.9 °F 55% 29.94 in 10.0 mi WNW 11.5 mph 23.0 mph N/A   Clear
2:53 PM 75.0 °F 54.0 °F 48% 29.94 in 10.0 mi WNW 15.0 mph 25.3 mph N/A   Partly Cloudy
3:53 PM 73.9 °F 51.1 °F 45% 29.95 in 10.0 mi WNW 16.1 mph 25.3 mph N/A   Partly Cloudy
4:53 PM 73.0 °F 51.1 °F 46% 29.96 in 10.0 mi WNW 19.6 mph 26.5 mph N/A   Partly Cloudy
5:53 PM 71.1 °F 48.9 °F 45% 29.96 in 10.0 mi WNW 15.0 mph 28.8 mph N/A   Clear
6:53 PM 69.1 °F 48.0 °F 47% 29.98 in 10.0 mi WNW 8.1 mph - N/A   Clear
7:53 PM 66.0 °F 48.9 °F 54% 29.99 in 10.0 mi West 4.6 mph - N/A   Clear
8:53 PM 64.0 °F 50.0 °F 60% 30.00 in 10.0 mi West 4.6 mph - N/A   Clear
9:53 PM 60.1 °F 51.1 °F 72% 30.01 in 10.0 mi SW 4.6 mph - N/A   Clear
10:53 PM 57.9 °F 51.1 °F 78% 30.01 in 10.0 mi Calm Calm - N/A   Clear
11:53 PM 57.9 °F 50.0 °F 75% 30.01 in 10.0 mi WSW 3.5 mph - N/A   Clear